TimeEST,TemperatureF,Dew PointF,Humidity,Sea Level PressureIn,VisibilityMPH,Wind Direction,Wind SpeedMPH,Gust SpeedMPH,PrecipitationIn,Events,Conditions,WindDirDegrees,DateUTC
12:56 AM,26.1,19.9,78,30.35,10.0,Calm,Calm,-,N/A,,Clear,0,2001-01-01 05:56:00
1:56 AM,27.0,18.0,69,30.33,10.0,Calm,Calm,-,N/A,,Clear,0,2001-01-01 06:56:00
2:56 AM,26.1,19.9,78,30.31,10.0,Calm,Calm,-,N/A,,Clear,0,2001-01-01 07:56:00
3:56 AM,24.1,19.9,84,30.32,10.0,NW,3.5,-,N/A,,Clear,320,2001-01-01 08:56:00
4:56 AM,25.0,19.0,78,30.32,10.0,Calm,Calm,-,N/A,,Clear,0,2001-01-01 09:56:00
5:56 AM,24.1,19.9,84,30.36,10.0,Calm,Calm,-,N/A,,Clear,0,2001-01-01 10:56:00
6:56 AM,25.0,21.0,85,30.38,10.0,Calm,Calm,-,N/A,,Clear,0,2001-01-01 11:56:00
7:56 AM,24.1,21.0,88,30.39,10.0,Calm,Calm,-,N/A,,Clear,0,2001-01-01 12:56:00
8:56 AM,30.9,23.0,72,30.40,10.0,Calm,Calm,-,N/A,,Clear,0,2001-01-01 13:56:00
9:56 AM,37.0,23.0,57,30.40,10.0,Calm,Calm,-,N/A,,Clear,0,2001-01-01 14:56:00
10:56 AM,42.1,19.9,41,30.40,10.0,Variable,5.8,-,N/A,,Clear,0,2001-01-01 15:56:00
11:56 AM,44.1,19.9,38,30.37,10.0,WNW,4.6,-,N/A,,Clear,300,2001-01-01 16:56:00
12:56 PM,46.0,19.0,34,30.35,10.0,NW,6.9,-,N/A,,Scattered Clouds,310,2001-01-01 17:56:00
1:56 PM,48.9,19.0,31,30.31,10.0,WNW,9.2,-,N/A,,Mostly Cloudy,290,2001-01-01 18:56:00
2:56 PM,50.0,18.0,28,30.30,10.0,SW,9.2,-,N/A,,Scattered Clouds,230,2001-01-01 19:56:00
3:56 PM,50.0,19.0,29,30.29,10.0,NW,12.7,-,N/A,,Clear,310,2001-01-01 20:56:00
4:56 PM,48.9,21.0,33,30.30,10.0,West,6.9,-,N/A,,Clear,270,2001-01-01 21:56:00
5:56 PM,43.0,24.1,47,30.32,10.0,WNW,3.5,-,N/A,,Clear,290,2001-01-01 22:56:00
6:56 PM,39.9,26.1,58,30.32,10.0,West,4.6,-,N/A,,Clear,260,2001-01-01 23:56:00
7:56 PM,36.0,27.0,70,30.33,10.0,Calm,Calm,-,N/A,,Clear,0,2001-01-02 00:56:00
8:56 PM,35.1,25.0,67,30.34,10.0,NW,4.6,-,N/A,,Clear,310,2001-01-02 01:56:00
9:56 PM,32.0,25.0,75,30.35,10.0,SW,3.5,-,N/A,,Clear,220,2001-01-02 02:56:00
10:56 PM,28.9,24.1,82,30.37,10.0,WNW,3.5,-,N/A,,Clear,300,2001-01-02 03:56:00
11:56 PM,28.9,24.1,82,30.37,10.0,Calm,Calm,-,N/A,,Clear,0,2001-01-02 04:56:00